Weather History for Mullan Pass, ID

Change the Weather History Date:

Tuesday, April 30, 2013

  Actual Average (K3TH) Record (K3TH)
Temperature  
Mean Temperature 22 °F -  
Max Temperature 27 °F 60 °F 84 °F (1998)
Min Temperature 19 °F 38 °F 37 °F (1999)
Degree Days  
Heating Degree Days 42    
Moisture  
Dew Point 20 °F    
Average Humidity 90    
Maximum Humidity 100    
Minimum Humidity 80    
Precipitation  
Precipitation 0.14 in - - ()
Sea Level Pressure  
Sea Level Pressure 30.05 in    
Wind  
Wind Speed 4 mph (NW)    
Max Wind Speed 13 mph    
Max Gust Speed 22 mph    
Visibility 4 miles    
Events Fog , Snow    
Averages and records for this station are not official NWS values.
T = Trace of Precipitation, MM = Missing Value Source: NWS Daily Summary

Daily Weather History Graph

Daily Weather History Graph

Search for Another Location

Airport:

Trip Planner

Search our weather history database for the weather conditions in past years. The results will help you decide how hot, cold, wet, or windy it might be!

Date:

Astronomy

Apr. 30, 2013 Rise Set
Actual Time 5:27 AM PDT 7:53 PM PDT
Civil Twilight 4:52 AM PDT 8:27 PM PDT
Nautical Twilight 4:10 AM PDT 9:10 PM PDT
Astronomical Twilight 3:21 AM PDT 10:00 PM PDT
Moon 12:24 AM PDT (4/30) 9:57 AM PDT (4/30)
Length of Visible Light 15h 34m
Length of Day
14h 26m
Waning Gibbous, 69% of the Moon is Illuminated
Apr 30
Waning Gibbous
May 2
Last Quarter
May 9
New
May 17
First Quarter
May 24
Full

Hourly Weather History & Observations

Time (PDT) Temp. Windchill Dew Point Humidity Pressure Visibility Wind Dir Wind Speed Gust Speed Precip Events Conditions
12:06 AM 21.2 °F 16.4 °F 21.2 °F 100% 29.82 in 3.0 mi Variable 3.5 mph - 0.00 in Snow Light Snow
12:24 AM 21.2 °F 14.9 °F 19.4 °F 93% 29.82 in 8.0 mi WNW 4.6 mph - 0.00 in Snow Light Snow
12:53 AM 21.0 °F 12.4 °F 19.0 °F 92% 29.92 in 10.0 mi NW 6.9 mph - 0.00 in   Overcast
1:30 AM 19.4 °F 12.8 °F 19.4 °F 100% 29.82 in 10.0 mi NW 4.6 mph - N/A   Mostly Cloudy
1:53 AM 19.0 °F 12.3 °F 16.0 °F 88% 29.93 in 10.0 mi Variable 4.6 mph - N/A   Partly Cloudy
2:53 AM 19.0 °F 11.1 °F 16.0 °F 88% 29.93 in 10.0 mi WNW 5.8 mph - 0.00 in   Mostly Cloudy
3:53 AM 19.0 °F 12.3 °F 15.1 °F 85% 29.95 in 10.0 mi WSW 4.6 mph - N/A   Clear
4:53 AM 19.0 °F 10.0 °F 16.0 °F 88% 29.96 in 10.0 mi NW 6.9 mph - N/A   Mostly Cloudy
5:53 AM 19.0 °F 10.0 °F 15.1 °F 85% 29.99 in 10.0 mi WNW 6.9 mph - N/A   Clear
6:53 AM 19.9 °F 14.9 °F 18.0 °F 92% 30.03 in 10.0 mi Variable 3.5 mph - N/A   Mostly Cloudy
7:09 AM 21.2 °F 16.4 °F 17.6 °F 86% 29.88 in 10.0 mi West 3.5 mph - N/A   Mostly Cloudy
7:21 AM 21.2 °F 16.4 °F 17.6 °F 86% 29.89 in 10.0 mi Variable 3.5 mph - N/A   Scattered Clouds
7:53 AM 21.9 °F 17.2 °F 18.0 °F 85% 30.04 in - Variable 3.5 mph - N/A   Scattered Clouds
8:21 AM 21.2 °F - 19.4 °F 93% 29.90 in 10.0 mi Calm Calm - N/A   Mostly Cloudy
8:53 AM 23.0 °F 18.4 °F 19.0 °F 85% 30.05 in 10.0 mi Variable 3.5 mph - N/A   Mostly Cloudy
9:10 AM 23.0 °F 17.0 °F 19.4 °F 86% 29.91 in 10.0 mi Variable 4.6 mph - N/A   Overcast
9:53 AM 24.1 °F 18.2 °F 19.0 °F 81% 30.05 in 10.0 mi WNW 4.6 mph - N/A   Mostly Cloudy
10:45 AM 23.0 °F 17.0 °F 19.4 °F 86% 29.93 in 2.0 mi Variable 4.6 mph - 0.00 in Snow Light Snow
10:48 AM 23.0 °F 17.0 °F 19.4 °F 86% 29.93 in 1.2 mi SW 4.6 mph - 0.01 in Snow Light Snow
10:53 AM 23.0 °F 17.0 °F 19.9 °F 88% 30.08 in 1.0 mi Variable 4.6 mph - 0.01 in Snow Light Snow
11:00 AM 23.0 °F 17.0 °F 21.2 °F 93% 29.94 in 1.5 mi Variable 4.6 mph - 0.00 in Snow Light Snow
11:04 AM 24.8 °F - 21.2 °F 86% 29.94 in 3.0 mi Calm Calm - 0.00 in Snow Light Snow
11:13 AM 24.8 °F 15.3 °F 21.2 °F 86% 29.95 in 1.2 mi WNW 9.2 mph - 0.00 in Snow Light Snow
11:15 AM 23.0 °F 12.4 °F 19.4 °F 86% 29.94 in 0.5 mi WNW 10.4 mph 21.9 mph 0.00 in Fog , Snow Snow
11:17 AM 21.2 °F 8.9 °F 19.4 °F 93% 29.95 in 0.2 mi NW 12.7 mph 21.9 mph 0.00 in Fog , Snow Snow
11:53 AM 19.9 °F 12.1 °F 17.1 °F 89% 30.12 in - Variable 5.8 mph - 0.03 in Snow Light Snow
12:00 PM 21.2 °F 14.9 °F 19.4 °F 93% 29.96 in - NNW 4.6 mph - 0.00 in Snow Light Snow
12:07 PM 23.0 °F - 19.4 °F 86% 29.96 in - Calm Calm - 0.00 in Snow Light Snow
12:22 PM 24.8 °F - 21.2 °F 86% 29.96 in 10.0 mi Calm Calm - 0.00 in   Overcast
12:32 PM 24.8 °F 19.1 °F 21.2 °F 86% 29.97 in 2.5 mi Variable 4.6 mph - 0.00 in Snow Light Snow
12:35 PM 24.8 °F - 21.2 °F 86% 29.97 in 1.8 mi Calm Calm - 0.01 in Snow Light Snow
12:39 PM 26.6 °F 20.0 °F 21.2 °F 80% 29.97 in 2.0 mi WNW 5.8 mph - 0.01 in Snow Light Snow
12:48 PM 26.6 °F 21.2 °F 21.2 °F 80% 29.97 in 9.0 mi Variable 4.6 mph - 0.01 in Snow Light Snow
12:53 PM 26.1 °F - 21.0 °F 81% 30.10 in 9.0 mi Calm Calm - 0.01 in   Overcast
1:00 PM 26.6 °F 20.0 °F 23.0 °F 86% 29.97 in 1.8 mi Variable 5.8 mph - 0.00 in Snow Light Snow
1:02 PM 26.6 °F 18.2 °F 21.2 °F 80% 29.97 in 0.5 mi North 8.1 mph - 0.00 in Fog , Snow Snow
1:05 PM 24.8 °F 16.9 °F 21.2 °F 86% 29.97 in 0.2 mi NNW 6.9 mph - 0.01 in Fog , Snow Heavy Snow
1:13 PM 21.2 °F 12.6 °F 21.2 °F 100% 29.97 in 0.2 mi Variable 6.9 mph - 0.02 in Fog , Snow Snow
1:20 PM 24.8 °F 16.9 °F 21.2 °F 86% 29.98 in 0.5 mi NNW 6.9 mph - 0.03 in Fog , Snow Light Snow
1:23 PM 24.8 °F 17.9 °F 21.2 °F 86% 29.98 in 1.0 mi NNW 5.8 mph - 0.03 in Snow Light Snow
1:28 PM 23.0 °F 15.8 °F 21.2 °F 93% 29.98 in 0.8 mi Variable 5.8 mph - 0.03 in Snow Light Snow
1:43 PM 23.0 °F 15.8 °F 21.2 °F 93% 29.99 in 0.5 mi Variable 5.8 mph - 0.03 in Fog , Snow Light Snow
1:53 PM 23.0 °F 12.4 °F 19.9 °F 88% 30.16 in 0.5 mi NW 10.4 mph 17.3 mph 0.03 in Fog , Snow Snow
2:05 PM 23.0 °F 13.1 °F 17.6 °F 80% 30.00 in 1.0 mi NW 9.2 mph - 0.00 in Snow Light Snow
2:14 PM 23.0 °F 17.0 °F 17.6 °F 80% 30.00 in 2.5 mi NNW 4.6 mph - 0.00 in Snow Light Snow
2:21 PM 24.8 °F 20.5 °F 19.4 °F 80% 30.00 in 8.0 mi Variable 3.5 mph - 0.00 in Snow Light Snow
2:43 PM 24.8 °F 17.9 °F 21.2 °F 86% 30.01 in 3.0 mi NNW 5.8 mph - 0.00 in Snow Light Snow
2:47 PM 24.8 °F 17.9 °F 21.2 °F 86% 30.01 in 2.5 mi North 5.8 mph - 0.00 in Snow Light Snow
2:53 PM 25.0 °F 20.7 °F 21.9 °F 88% 30.17 in 3.0 mi NNW 3.5 mph - 0.00 in Snow Light Snow
3:01 PM 24.8 °F 19.1 °F 19.4 °F 80% 30.02 in 7.0 mi Variable 4.6 mph - 0.00 in Snow Light Snow
3:20 PM 24.8 °F 17.9 °F 19.4 °F 80% 30.03 in 4.0 mi WNW 5.8 mph - 0.00 in Snow Light Snow
3:26 PM 24.8 °F 20.5 °F 19.4 °F 80% 30.03 in 1.8 mi Variable 3.5 mph - 0.00 in Snow Light Snow
3:30 PM 24.8 °F 20.5 °F 21.2 °F 86% 30.03 in 1.0 mi Variable 3.5 mph - 0.00 in Snow Light Snow
3:39 PM 21.2 °F 13.6 °F 21.2 °F 100% 30.04 in 0.5 mi Variable 5.8 mph - 0.00 in Fog , Snow Snow
3:44 PM 23.0 °F 14.7 °F 21.2 °F 93% 30.03 in 0.2 mi NW 6.9 mph - 0.00 in Fog , Snow Light Snow
3:53 PM 21.9 °F 14.5 °F 21.0 °F 96% 30.20 in 0.2 mi Variable 5.8 mph - 0.02 in Fog , Snow Snow
4:14 PM 21.2 °F 13.6 °F 21.2 °F 100% 30.04 in 0.5 mi WNW 5.8 mph - 0.02 in Fog , Snow Snow
4:18 PM 21.2 °F 14.9 °F 21.2 °F 100% 30.04 in 1.0 mi Variable 4.6 mph - 0.02 in Snow Light Snow
4:21 PM 21.2 °F 13.6 °F 21.2 °F 100% 30.04 in 2.5 mi WNW 5.8 mph - 0.02 in Snow Light Snow
4:28 PM 23.0 °F 17.0 °F 21.2 °F 93% 30.04 in 8.0 mi Variable 4.6 mph - 0.02 in Snow Light Snow
4:33 PM 24.8 °F - 23.0 °F 93% 30.04 in 9.0 mi Calm Calm - 0.02 in   Overcast
4:53 PM 26.1 °F - 23.0 °F 88% 30.20 in 10.0 mi Calm Calm - 0.02 in   Mostly Cloudy
5:11 PM 24.8 °F 19.1 °F 21.2 °F 86% 30.06 in 10.0 mi Variable 4.6 mph - N/A   Mostly Cloudy
5:29 PM 24.8 °F 20.5 °F 23.0 °F 93% 30.07 in 2.5 mi NW 3.5 mph - 0.00 in Snow Light Snow
5:31 PM 24.8 °F 20.5 °F 23.0 °F 93% 30.07 in 1.8 mi Variable 3.5 mph - 0.00 in Snow Light Snow
5:39 PM 26.6 °F 22.6 °F 24.8 °F 93% 30.07 in 3.0 mi Variable 3.5 mph - 0.00 in Snow Light Snow
5:53 PM 26.1 °F 21.9 °F 23.0 °F 88% 30.23 in 10.0 mi Variable 3.5 mph - 0.00 in   Overcast
6:19 PM 24.8 °F 20.5 °F 21.2 °F 86% 30.09 in 5.0 mi Variable 3.5 mph - N/A   Overcast
6:21 PM 24.8 °F 20.5 °F 21.2 °F 86% 30.09 in 2.5 mi WNW 3.5 mph - 0.00 in Snow Light Snow
6:27 PM 23.0 °F 18.4 °F 23.0 °F 100% 30.09 in 1.2 mi Variable 3.5 mph - 0.00 in Snow Light Snow
6:35 PM 23.0 °F 18.4 °F 21.2 °F 93% 30.10 in 0.8 mi Variable 3.5 mph - 0.00 in Snow Light Snow
6:38 PM 23.0 °F 18.4 °F 21.2 °F 93% 30.10 in 1.2 mi Variable 3.5 mph - 0.00 in Snow Light Snow
6:40 PM 23.0 °F 18.4 °F 21.2 °F 93% 30.10 in 2.5 mi Variable 3.5 mph - 0.00 in Snow Light Snow
6:53 PM 23.0 °F 18.4 °F 21.0 °F 92% 30.26 in 3.0 mi Variable 3.5 mph - 0.00 in Snow Light Snow
7:02 PM 23.0 °F 17.0 °F 21.2 °F 93% 30.10 in 4.0 mi Variable 4.6 mph - 0.00 in Snow Light Snow
7:04 PM 23.0 °F 18.4 °F 21.2 °F 93% 30.11 in 1.5 mi NW 3.5 mph - 0.00 in Snow Light Snow
7:09 PM 23.0 °F 17.0 °F 21.2 °F 93% 30.11 in 0.8 mi Variable 4.6 mph - 0.00 in Snow Light Snow
7:30 PM 21.2 °F 16.4 °F 21.2 °F 100% 30.12 in 0.5 mi NNW 3.5 mph - 0.02 in Fog , Snow Light Snow
7:34 PM 21.2 °F 16.4 °F 21.2 °F 100% 30.12 in 1.2 mi North 3.5 mph - 0.02 in Snow Light Snow
7:38 PM 21.2 °F 16.4 °F 21.2 °F 100% 30.12 in 1.2 mi NNW 3.5 mph - 0.02 in Snow Light Snow
7:50 PM 21.2 °F 16.4 °F 21.2 °F 100% 30.13 in 2.0 mi NNW 3.5 mph - 0.02 in   Overcast
7:53 PM 21.9 °F - 21.0 °F 96% 30.29 in 1.5 mi Calm Calm - 0.02 in   Overcast
7:56 PM 23.0 °F - 21.2 °F 93% 30.13 in 1.2 mi Calm Calm - N/A   Overcast
7:58 PM 23.0 °F 18.4 °F 21.2 °F 93% 30.13 in 0.8 mi NW 3.5 mph - N/A   Mist
8:14 PM 23.0 °F - 21.2 °F 93% 30.14 in 1.0 mi Calm Calm - 0.00 in Snow Light Snow
8:23 PM 23.0 °F 18.4 °F 21.2 °F 93% 30.15 in 0.8 mi Variable 3.5 mph - 0.00 in   Mist
8:41 PM 21.2 °F - 21.2 °F 100% 30.15 in 1.0 mi Calm Calm - 0.00 in   Mist
8:48 PM 21.2 °F - 19.4 °F 93% 30.16 in 2.5 mi Calm Calm - 0.00 in   Mostly Cloudy
8:53 PM 21.0 °F - 19.9 °F 96% 30.32 in 10.0 mi Calm Calm - 0.00 in   Mostly Cloudy
9:01 PM 21.2 °F 14.9 °F 19.4 °F 93% 30.16 in 10.0 mi WSW 4.6 mph - N/A   Mostly Cloudy
9:13 PM 21.2 °F - 21.2 °F 100% 30.16 in 10.0 mi Calm Calm - N/A   Mostly Cloudy
10:17 PM 21.2 °F - 19.4 °F 93% 30.18 in - Calm Calm - N/A   Scattered Clouds
10:53 PM 19.9 °F 14.9 °F 19.0 °F 96% 30.35 in - Variable 3.5 mph - N/A   Mostly Cloudy
11:05 PM 19.4 °F 12.8 °F 19.4 °F 100% 30.19 in - NW 4.6 mph - N/A   Mostly Cloudy
11:12 PM 19.4 °F 12.8 °F 19.4 °F 100% 30.20 in - NW 4.6 mph - N/A   Scattered Clouds
11:53 PM 19.9 °F 14.9 °F 18.0 °F 92% 30.39 in 10.0 mi NW 3.5 mph - N/A   Clear